Tracking 19832 objects as of 25-Aug-2019
HD Live streaming from Space Station
objects crossing your sky now

SL-8 R/B

Track SL-8 R/B now!
10-day predictions


NORAD ID: 13066
Int'l Code: 1982-012B
Perigee: 948.4 km
Apogee: 1,013.4 km
Inclination: 82.9 °
Period: 104.6 minutes
Semi major axis: 7351 km
RCS: 4.3932 m2 (large)
Launch date: February 17, 1982
Source: Commonwealth of Independent States (former USSR) (CIS)
Launch site: PLESETSK MISSILE AND SPACE COMPLEX (PKMTR)

Note: This is a ROCKET BODY
aabbcc
Your satellite tracking list
Your tracking list is empty




NASA's NSSDC Master Catalog

Two Line Element Set (TLE):
1 13066U 82012B   19236.95746012 +.00000016 +00000-0 +69093-6 0  9994
2 13066 082.9004 342.6149 0044206 159.3530 296.0730 13.77213525884892
Source of the keplerian elements: AFSPC